Powrót do katalogu

FREGAT DEB

LostLEO
NORAD 52963·DEBRIS·🇷🇺 Russia

Wystrzelony Jul 18, 2011 z Baikonur Cosmodrome

Loading…

Następne Przeloty (najbliższe 24 godziny)

TLE

NieaktualneSource: Space-Track

Epoka: May 12, 2026, 19:00 UTC

1 52963U 11037PS  26132.79203815  .00171061 -26670-5  13205-2 0  9992
2 52963  26.3697 306.2658 0495664  43.6101 320.2551 14.88541762194568

Śledź FREGAT DEB w czasie rzeczywistym z AllMySat

Download on the App Store